FW0532 Weather Reports


Display with metric or nautical units.
time (UTC)temp
F
wind
direction
speed
MPH
gust
MPH
rain 1hr
in
rain 24hr
in
rain mn
in
humidity
%
barometer
mb
20260504030827 50 171 2.0 4.0 0.00 0.01 0.01 79 1011.3
20260504030327 50 148 1.0 4.0 0.00 0.01 0.01 77 1011.3
20260504025826 50 180 0.0 5.0 0.00 0.01 0.01 79 1011.3
20260504025327 50 191 4.0 6.0 0.00 0.01 0.01 78 1011.4
20260504024826 50 173 2.0 6.0 0.00 0.01 0.01 77 1011.4
20260504024326 50 135 0.0 4.0 0.00 0.01 0.01 77 1011.4
20260504023826 50 119 3.0 5.0 0.00 0.01 0.01 78 1011.5
20260504023326 50 196 2.0 5.0 0.00 0.01 0.01 78 1011.5
20260504022326 50 134 2.0 5.0 0.00 0.01 0.01 78 1011.4
20260504021825 50 171 3.0 5.0 0.00 0.01 0.01 77 1011.4
20260504021325 49 139 0.0 4.0 0.00 0.01 0.01 79 1011.3
20260504020825 49 158 0.0 4.0 0.00 0.01 0.01 78 1011.4
20260504020325 49 132 0.0 3.0 0.00 0.01 0.01 78 1011.4
20260504015825 50 103 1.0 3.0 0.00 0.01 0.01 78 1011.3
20260504015325 49 165 0.0 3.0 0.00 0.01 0.01 78 1011.3
20260504014825 49 109 1.0 6.0 0.00 0.01 0.01 79 1011.3
20260504014324 50 117 1.0 6.0 0.00 0.01 0.01 77 1011.3
20260504012825 49 89 1.0 4.0 0.00 0.01 0.01 81 1011.4
20260504011823 49 122 1.0 5.0 0.00 0.01 0.01 81 1011.3
20260504011323 49 129 1.0 4.0 0.00 0.01 0.01 82 1011.3
20260504010823 49 122 0.0 7.0 0.00 0.01 0.01 82 1011.3
20260504010323 49 104 3.0 7.0 0.00 0.01 0.01 81 1011.3
20260504005823 49 119 1.0 5.0 0.00 0.01 0.01 81 1011.2
20260504005323 49 98 1.0 5.0 0.00 0.01 0.01 82 1011.3
20260504004823 49 99 1.0 5.0 0.00 0.01 0.01 83 1011.3
20260504004323 49 103 3.0 5.0 0.00 0.01 0.01 83 1011.1
20260504003822 49 106 3.0 5.0 0.00 0.01 0.01 83 1011.1
20260504003322 49 90 3.0 5.0 0.00 0.01 0.01 83 1011.1
20260504002823 49 113 3.0 5.0 0.00 0.01 0.01 82 1010.9
20260504002322 49 98 0.0 4.0 0.00 0.01 0.01 82 1011.0
20260504001321 49 111 3.0 6.0 0.00 0.01 0.01 79 1011.0
20260504000821 49 113 1.0 6.0 0.00 0.01 0.01 80 1011.1
20260504000321 49 98 2.0 6.0 0.00 0.01 0.01 80 1011.2
20260503235821 49 100 5.0 6.0 0.00 0.01 0.01 80 1010.9
20260503235321 49 112 5.0 5.0 0.00 0.01 0.01 80 1011.0
20260503234821 50 96 3.0 5.0 0.00 0.01 0.01 81 1010.9
20260503233320 49 121 2.0 7.0 0.00 0.01 0.01 80 1011.0
20260503232820 49 79 0.0 7.0 0.00 0.01 0.01 80 1010.9
20260503232320 49 130 1.0 6.0 0.00 0.01 0.01 83 1010.8
20260503231820 49 186 0.0 7.0 0.00 0.01 0.01 84 1010.9
20260503231319 49 109 2.0 7.0 0.00 0.01 0.01 83 1011.0
20260503230820 49 106 2.0 6.0 0.00 0.01 0.01 84 1011.0
20260503230320 49 117 2.0 6.0 0.00 0.01 0.01 83 1011.0
20260503225819 49 126 2.0 6.0 0.00 0.01 0.01 83 1010.9
20260503224819 49 118 2.0 5.0 0.00 0.01 0.01 85 1010.9
20260503224319 49 109 2.0 6.0 0.00 0.01 0.01 84 1011.1
20260503223819 49 140 5.0 6.0 0.00 0.01 0.01 85 1011.3
20260503223319 49 120 2.0 7.0 0.00 0.01 0.01 84 1011.6
20260503222818 49 94 2.0 7.0 0.00 0.01 0.01 85 1011.6
20260503222320 49 98 4.0 4.0 0.00 0.01 0.01 86 1011.7
20260503221818 49 121 3.0 4.0 0.01 0.01 0.01 86 1011.9
20260503221318 49 111 4.0 4.0 0.01 0.01 0.01 87 1012.2
20260503220817 48 102 2.0 3.0 0.01 0.01 0.01 88 1012.3
20260503215818 48 107 0.0 2.0 0.01 0.01 0.01 88 1012.5
20260503215317 48 108 0.0 0.0 0.01 0.01 0.01 88 1012.8
20260503214317 47 153 0.0 2.0 0.01 0.01 0.01 88 1012.8
20260503213817 48 153 0.0 4.0 0.01 0.01 0.01 86 1013.0
20260503213316 48 186 1.0 4.0 0.01 0.01 0.01 83 1013.0
20260503212816 48 234 0.0 6.0 0.01 0.01 0.01 80 1013.1
20260503212317 48 252 0.0 11.0 0.01 0.01 0.01 78 1013.5
20260503211316 49 192 5.0 14.0 0.00 0.00 0.00 75 1013.9
20260503210816 50 227 1.0 18.0 0.00 0.00 0.00 73 1013.8
20260503210316 51 302 7.0 19.0 0.00 0.00 0.00 68 1013.8
20260503205816 52 209 13.0 19.0 0.00 0.00 0.00 65 1013.8
20260503203815 57 261 5.0 17.0 0.00 0.00 0.00 47 1013.3
20260503203315 57 182 4.0 17.0 0.00 0.00 0.00 44 1013.3
20260503201814 58 236 13.0 14.0 0.00 0.00 0.00 44 1013.2
20260503201314 58 198 5.0 14.0 0.00 0.00 0.00 42 1013.4
20260503200814 59 226 2.0 14.0 0.00 0.00 0.00 41 1013.4
20260503195813 59 131 3.0 20.0 0.00 0.00 0.00 41 1013.3
20260503195314 59 183 19.0 20.0 0.00 0.00 0.00 40 1013.3
20260503194813 60 272 6.0 24.0 0.00 0.00 0.00 42 1013.2
20260503194313 60 190 7.0 24.0 0.00 0.00 0.00 41 1013.2
20260503193813 60 196 15.0 21.0 0.00 0.00 0.00 40 1013.3
20260503192812 60 206 15.0 22.0 0.00 0.00 0.00 37 1013.3
20260503192313 61 236 8.0 22.0 0.00 0.00 0.00 39 1013.5
20260503191813 61 150 5.0 19.0 0.00 0.00 0.00 38 1013.6
20260503191312 61 252 5.0 19.0 0.00 0.00 0.00 39 1013.9
20260503190813 61 223 11.0 19.0 0.00 0.00 0.00 40 1013.9
20260503185812 61 221 3.0 24.0 0.00 0.00 0.00 39 1014.2
20260503185311 61 232 10.0 24.0 0.00 0.00 0.00 37 1014.1
20260503184811 61 241 10.0 21.0 0.00 0.00 0.00 38 1014.3
20260503183812 61 170 10.0 20.0 0.00 0.00 0.00 39 1014.6
20260503183312 61 302 5.0 14.0 0.00 0.00 0.00 39 1014.6
20260503182812 61 215 3.0 22.0 0.00 0.00 0.00 41 1014.5
20260503182311 61 200 9.0 22.0 0.00 0.00 0.00 39 1014.5
20260503181810 61 209 6.0 16.0 0.00 0.00 0.00 41 1014.8
20260503181310 61 238 7.0 16.0 0.00 0.00 0.00 41 1014.7
20260503180811 61 207 7.0 16.0 0.00 0.00 0.00 42 1014.9
20260503174810 61 196 14.0 18.0 0.00 0.00 0.00 44 1015.1
20260503174309 60 240 5.0 16.0 0.00 0.00 0.00 41 1015.3
20260503173810 60 225 5.0 15.0 0.00 0.00 0.00 40 1015.4
20260503172809 60 246 14.0 17.0 0.00 0.00 0.00 42 1015.6
20260503171809 59 149 7.0 24.0 0.00 0.00 0.00 41 1015.6
20260503171309 59 178 6.0 24.0 0.00 0.00 0.00 41 1015.6
20260503170808 59 182 12.0 19.0 0.00 0.00 0.00 40 1015.6
20260503170308 59 211 4.0 14.0 0.00 0.00 0.00 41 1015.7
20260503150805 57 196 1.0 12.0 0.00 0.00 0.00 57 1016.7
20260503150304 56 172 4.0 12.0 0.00 0.00 0.00 52 1016.8
20260503140303 53 196 5.0 10.0 0.00 0.00 0.00 55 1016.6
20260503131331 49 242 3.0 12.0 0.00 0.00 0.00 62 1016.9
20260503130331 48 236 3.0 7.0 0.00 0.00 0.00 63 1016.7
20260503110827 34 173 1.0 3.0 0.00 0.00 0.00 84 1016.2
20260503110327 34 275 0.0 3.0 0.00 0.00 0.00 86 1016.1
20260503090323 33 252 0.0 0.0 0.00 0.00 0.00 90 1015.8
20260503081322 33 251 0.0 0.0 0.00 0.00 0.00 88 1015.8
20260503080321 33 251 0.0 0.0 0.00 0.00 0.00 88 1015.8
20260503072321 33 252 0.0 0.0 0.00 0.00 0.00 90 1015.9
20260503071320 33 251 0.0 0.0 0.00 0.00 0.00 90 1015.9
20260503070820 33 251 0.0 0.0 0.00 0.00 0.00 90 1015.9
20260503070320 33 251 0.0 0.0 0.00 0.00 0.00 89 1015.9
20260503060318 34 251 0.0 0.0 0.00 0.00 0.00 89 1016.4
20260503054818 33 252 0.0 0.0 0.00 0.00 0.00 90 1016.4
20260503054318 33 251 0.0 0.0 0.00 0.00 0.00 90 1016.3
20260503053817 33 252 0.0 0.0 0.00 0.00 0.00 90 1016.3
20260503053317 33 251 0.0 0.0 0.00 0.00 0.00 90 1016.3
20260503052817 33 252 0.0 0.0 0.00 0.00 0.00 90 1016.3
20260503052317 33 251 0.0 0.0 0.00 0.00 0.00 89 1016.4
20260503051817 34 252 0.0 0.0 0.00 0.00 0.00 89 1016.5
20260503051316 34 252 0.0 0.0 0.00 0.00 0.00 90 1016.5
20260503050816 33 252 0.0 0.0 0.00 0.00 0.00 90 1016.3
20260503050316 33 252 0.0 0.0 0.00 0.00 0.00 90 1016.4
20260503045316 33 251 0.0 0.0 0.00 0.00 0.00 90 1016.2
20260503044816 33 252 0.0 0.0 0.00 0.00 0.00 90 1016.2
20260503044315 33 251 0.0 0.0 0.00 0.00 0.00 90 1016.2
20260503043816 33 251 0.0 0.0 0.00 0.00 0.00 90 1016.2
20260503043315 33 252 0.0 0.0 0.00 0.00 0.00 90 1016.2
20260503042815 33 251 0.0 0.0 0.00 0.00 0.00 90 1016.2
20260503042315 33 252 0.0 0.0 0.00 0.00 0.00 89 1016.2
20260503041815 34 251 0.0 0.0 0.00 0.00 0.00 90 1016.3
20260503041314 34 251 0.0 0.0 0.00 0.00 0.00 90 1016.3
20260503040814 34 251 0.0 0.0 0.00 0.00 0.00 89 1016.3
20260503040314 34 252 0.0 0.0 0.00 0.00 0.00 89 1016.3
20260503035814 34 251 0.0 0.0 0.00 0.00 0.00 88 1016.3
20260503035314 34 252 0.0 0.0 0.00 0.00 0.00 88 1016.3
20260503034814 35 251 0.0 0.0 0.00 0.00 0.00 87 1016.3
20260503034314 35 251 0.0 0.0 0.00 0.00 0.00 86 1016.3
20260503033813 36 251 0.0 0.0 0.00 0.00 0.00 85 1016.4
20260503033313 36 251 0.0 0.0 0.00 0.00 0.00 85 1016.4
20260503032313 36 252 0.0 0.0 0.00 0.00 0.00 84 1016.4
20260503031813 37 252 0.0 1.0 0.00 0.00 0.00 83 1016.4